This is the latest recevied weather packets stored in our database for station/object KI5NXU. If no packets are shown the sender has not sent any weather packets the latest 10 day(s).
| Time | Temp. | Humidity | Pressure | Rain* | Wind** | Luminosity | Snow |
|---|---|---|---|---|---|---|---|
| 1787680033 | 34.44° C | 44% | 1015.5 hPa | 0 mm | - | 570 W/m² | - |
| 1787679732 | 34.44° C | 46% | 1015.4 hPa | 0 mm | - | 586 W/m² | - |
| 1787679427 | 34.44° C | 45% | 1015.6 hPa | 0 mm | - | 627 W/m² | - |
| 1787679123 | 35.56° C | 46% | 1015.6 hPa | 0 mm | - | 629 W/m² | - |
| 1787678822 | 35° C | 45% | 1015.9 hPa | 0 mm | - | 670 W/m² | - |
| 1787678517 | 33.89° C | 46% | 1015.7 hPa | 0 mm | - | 690 W/m² | - |
| 1787678218 | 33.89° C | 47% | 1016.1 hPa | 0 mm | - | 693 W/m² | - |
| 1787677913 | 33.33° C | 48% | 1016.1 hPa | 0 mm | - | 660 W/m² | - |
| 1787677612 | 32.78° C | 49% | 1016.2 hPa | 0 mm | - | 617 W/m² | - |
| 1787677312 | 33.33° C | 49% | 1016.7 hPa | 0 mm | - | 575 W/m² | - |
| 1787677011 | 32.22° C | 51% | 1016.7 hPa | 0 mm | - | 568 W/m² | - |
| 1787676706 | 32.78° C | 49% | 1016.8 hPa | 0 mm | - | 595 W/m² | - |
| 1787676402 | 33.89° C | 47% | 1016.8 hPa | 0 mm | - | 649 W/m² | - |
| 1787676098 | 33.33° C | 49% | 1016.8 hPa | 0 mm | - | 675 W/m² | - |
| 1787675794 | 32.78° C | 50% | 1016.7 hPa | 0 mm | - | 701 W/m² | - |
| 1787675490 | 32.22° C | 50% | 1016.9 hPa | 0 mm | - | 660 W/m² | - |
| 1787675188 | 33.33° C | 48% | 1016.9 hPa | 0 mm | - | 661 W/m² | - |
| 1787674883 | 32.22° C | 48% | 1017 hPa | 0 mm | - | 677 W/m² | - |
| 1787674579 | 32.22° C | 50% | 1017 hPa | 0 mm | - | 679 W/m² | - |
| 1787674274 | 32.22° C | 51% | 1017.3 hPa | 0 mm | - | 571 W/m² | - |
| 1787673969 | 32.22° C | 52% | 1017.4 hPa | 0 mm | - | 513 W/m² | - |
| 1787673664 | 32.22° C | 51% | 1017.2 hPa | 0 mm | - | 482 W/m² | - |
| 1787673364 | 31.67° C | 52% | 1017.1 hPa | 0 mm | - | 535 W/m² | - |
| 1787673058 | 31.67° C | 51% | 1017.3 hPa | 0 mm | - | 518 W/m² | - |
| 1787672752 | 31.67° C | 54% | 1017.1 hPa | 0 mm | - | 504 W/m² | - |
* Rain latest hour (hover to see other rain measurements)
** Current wind speed in m/s (hover to see current wind gust speed)